Weather History for Pauls Valley, OK

Change the Weather History Date:

Wednesday, November 20, 2013

  Actual Average (KADH) Record (KADH)
Temperature  
Mean Temperature 54 °F -  
Max Temperature 59 °F 61 °F 82 °F (1932)
Min Temperature 48 °F 38 °F 18 °F (1937)
Degree Days  
Heating Degree Days 12    
Growing Degree Days 4 (Base 50)    
Moisture  
Dew Point 38 °F    
Average Humidity 55    
Maximum Humidity 77    
Minimum Humidity 44    
Precipitation  
Precipitation 0.00 in - - ()
Sea Level Pressure  
Sea Level Pressure 29.93 in    
Wind  
Wind Speed 15 mph (SSE)    
Max Wind Speed 20 mph    
Max Gust Speed 29 mph    
Visibility 10 miles    
Events      
Averages and records for this station are not official NWS values.
T = Trace of Precipitation, MM = Missing Value Source: NWS Daily Summary

Daily Weather History Graph

Daily Weather History Graph

Search for Another Location

Airport:

Trip Planner

Search our weather history database for the weather conditions in past years. The results will help you decide how hot, cold, wet, or windy it might be!

Date:

Astronomy

Nov. 20, 2013 Rise Set
Actual Time 7:07 AM CST 5:21 PM CST
Civil Twilight 6:40 AM CST 5:48 PM CST
Nautical Twilight 6:10 AM CST 6:18 PM CST
Astronomical Twilight 5:39 AM CST 6:48 PM CST
Moon 8:05 PM CST (11/20) 9:33 AM CST (11/20)
Length of Visible Light 11h 07m
Length of Day
10h 13m
Waning Gibbous, 91% of the Moon is Illuminated
Nov 20
Waning Gibbous
Nov 25
Last Quarter
Dec 2
New
Dec 9
First Quarter
Dec 17
Full

Hourly Weather History & Observations

Time (CST) Temp. Dew Point Humidity Pressure Visibility Wind Dir Wind Speed Gust Speed Precip Events Conditions
12:15 AM 51.8 °F 30.2 °F 44% 29.99 in 10.0 mi SSE 17.3 mph 21.9 mph N/A   Unknown
12:35 AM 51.8 °F 30.2 °F 44% 29.99 in 10.0 mi SSE 13.8 mph 23.0 mph N/A   Unknown
12:55 AM 51.8 °F 30.2 °F 44% 29.98 in 10.0 mi SSE 16.1 mph 23.0 mph N/A   Unknown
1:15 AM 51.8 °F 30.2 °F 44% 29.98 in 10.0 mi SSE 19.6 mph 24.2 mph N/A   Unknown
1:35 AM 51.8 °F 32.0 °F 47% 29.99 in 10.0 mi SSE 13.8 mph 20.7 mph N/A   Unknown
1:55 AM 51.8 °F 32.0 °F 47% 29.97 in 10.0 mi SSE 12.7 mph 21.9 mph N/A   Unknown
2:15 AM 51.8 °F 32.0 °F 47% 29.97 in 10.0 mi SSE 15.0 mph 21.9 mph N/A   Unknown
2:35 AM 51.8 °F 32.0 °F 47% 29.97 in 10.0 mi SSE 17.3 mph 25.3 mph N/A   Unknown
2:55 AM 50.0 °F 30.2 °F 47% 29.96 in 10.0 mi SSE 15.0 mph 21.9 mph N/A   Unknown
3:15 AM 50.0 °F 32.0 °F 50% 29.97 in 10.0 mi SSE 13.8 mph - N/A   Unknown
3:35 AM 50.0 °F 32.0 °F 50% 29.97 in 10.0 mi SSE 15.0 mph 20.7 mph N/A   Unknown
3:55 AM 50.0 °F 32.0 °F 50% 29.96 in 10.0 mi SSE 18.4 mph 25.3 mph N/A   Unknown
4:15 AM 50.0 °F 32.0 °F 50% 29.96 in 10.0 mi South 13.8 mph 21.9 mph N/A   Unknown
4:35 AM 50.0 °F 32.0 °F 50% 29.96 in 10.0 mi SSE 17.3 mph 23.0 mph N/A   Unknown
4:55 AM 50.0 °F 32.0 °F 50% 29.95 in 10.0 mi SSE 19.6 mph - N/A   Unknown
5:15 AM 50.0 °F 32.0 °F 50% 29.94 in 10.0 mi SSE 18.4 mph 21.9 mph N/A   Unknown
5:35 AM 50.0 °F 32.0 °F 50% 29.94 in 10.0 mi SSE 18.4 mph 24.2 mph N/A   Unknown
5:55 AM 50.0 °F 32.0 °F 50% 29.94 in 10.0 mi SSE 19.6 mph 25.3 mph N/A   Unknown
6:15 AM 50.0 °F 32.0 °F 50% 29.95 in 10.0 mi SSE 18.4 mph 26.5 mph N/A   Unknown
6:35 AM 50.0 °F 32.0 °F 50% 29.96 in 10.0 mi SSE 17.3 mph 25.3 mph N/A   Unknown
6:55 AM 50.0 °F 32.0 °F 50% 29.96 in 10.0 mi SSE 18.4 mph 28.8 mph N/A   Unknown
7:15 AM 48.2 °F 32.0 °F 54% 29.97 in 10.0 mi SSE 18.4 mph - N/A   Unknown
7:35 AM 50.0 °F 32.0 °F 50% 29.96 in 10.0 mi SSE 18.4 mph 25.3 mph N/A   Unknown
7:55 AM 50.0 °F 32.0 °F 50% 29.96 in 10.0 mi SSE 17.3 mph 24.2 mph N/A   Unknown
8:15 AM 50.0 °F 32.0 °F 50% 29.97 in 10.0 mi SSE 17.3 mph - N/A   Unknown
8:35 AM 50.0 °F 32.0 °F 50% 29.97 in 10.0 mi SSE 15.0 mph 19.6 mph N/A   Unknown
8:55 AM 50.0 °F 32.0 °F 50% 29.97 in 10.0 mi SSE 12.7 mph 19.6 mph N/A   Unknown
9:15 AM 50.0 °F 32.0 °F 50% 29.96 in 10.0 mi SSE 16.1 mph 23.0 mph N/A   Unknown
9:35 AM 50.0 °F 32.0 °F 50% 29.96 in 10.0 mi SSE 15.0 mph - N/A   Unknown
9:55 AM 50.0 °F 32.0 °F 50% 29.97 in 10.0 mi SSE 16.1 mph 20.7 mph N/A   Unknown
10:15 AM 50.0 °F 32.0 °F 50% 29.98 in 10.0 mi SSE 10.4 mph 17.3 mph N/A   Unknown
10:35 AM 51.8 °F 32.0 °F 47% 29.98 in 10.0 mi SSE 10.4 mph 17.3 mph N/A   Unknown
10:55 AM 51.8 °F 32.0 °F 47% 29.98 in 10.0 mi SSE 12.7 mph - N/A   Unknown
11:15 AM 51.8 °F 32.0 °F 47% 29.96 in 10.0 mi SSE 12.7 mph 17.3 mph N/A   Unknown
11:35 AM 51.8 °F 32.0 °F 47% 29.96 in 10.0 mi SSE 11.5 mph 18.4 mph N/A   Unknown
11:55 AM 53.6 °F 33.8 °F 47% 29.94 in 10.0 mi SSE 15.0 mph - N/A   Unknown
12:15 PM 53.6 °F 33.8 °F 47% 29.93 in 10.0 mi SSE 13.8 mph 21.9 mph N/A   Unknown
12:35 PM 53.6 °F 33.8 °F 47% 29.91 in 10.0 mi SSE 17.3 mph 23.0 mph N/A   Unknown
12:55 PM 53.6 °F 35.6 °F 51% 29.90 in 10.0 mi SSE 13.8 mph - N/A   Unknown
1:15 PM 55.4 °F 35.6 °F 47% 29.89 in 10.0 mi SSE 15.0 mph 21.9 mph N/A   Unknown
1:35 PM 55.4 °F 37.4 °F 51% 29.88 in 10.0 mi SSE 13.8 mph 23.0 mph N/A   Unknown
1:55 PM 55.4 °F 39.2 °F 54% 29.87 in 10.0 mi South 15.0 mph - N/A   Unknown
2:15 PM 55.4 °F 37.4 °F 51% 29.86 in 10.0 mi SSE 13.8 mph 20.7 mph N/A   Unknown
2:35 PM 55.4 °F 39.2 °F 54% 29.86 in 10.0 mi SSE 12.7 mph - N/A   Unknown
2:55 PM 57.2 °F 37.4 °F 48% 29.86 in 10.0 mi SSE 17.3 mph 21.9 mph N/A   Unknown
3:15 PM 57.2 °F 39.2 °F 51% 29.85 in 10.0 mi SSE 11.5 mph 17.3 mph N/A   Unknown
3:35 PM 57.2 °F 39.2 °F 51% 29.85 in 10.0 mi SSE 10.4 mph - N/A   Unknown
3:55 PM 59.0 °F 41.0 °F 51% 29.86 in 10.0 mi SSE 9.2 mph - N/A   Unknown
4:15 PM 59.0 °F 42.8 °F 55% 29.87 in 10.0 mi SSE 10.4 mph - N/A   Unknown
4:35 PM 59.0 °F 42.8 °F 55% 29.87 in 10.0 mi SSE 8.1 mph - N/A   Unknown
4:55 PM 59.0 °F 42.8 °F 55% 29.87 in 10.0 mi SSE 8.1 mph - N/A   Unknown
5:15 PM 59.0 °F 44.6 °F 59% 29.88 in 10.0 mi SSE 6.9 mph - N/A   Unknown
5:35 PM 57.2 °F 44.6 °F 63% 29.88 in 10.0 mi SSE 8.1 mph - N/A   Unknown
5:55 PM 57.2 °F 44.6 °F 63% 29.88 in 10.0 mi SSE 8.1 mph - N/A   Unknown
6:15 PM 57.2 °F 44.6 °F 63% 29.89 in 10.0 mi SSE 8.1 mph - N/A   Unknown
6:35 PM 57.2 °F 46.4 °F 67% 29.90 in 10.0 mi SSE 4.6 mph - N/A   Unknown
6:55 PM 57.2 °F 46.4 °F 67% 29.90 in 10.0 mi SSE 6.9 mph - N/A   Unknown
7:15 PM 57.2 °F 46.4 °F 67% 29.90 in 10.0 mi SSE 8.1 mph - N/A   Unknown
7:35 PM 57.2 °F 46.4 °F 67% 29.90 in 10.0 mi SSE 10.4 mph - N/A   Unknown
7:55 PM 59.0 °F 46.4 °F 63% 29.88 in 10.0 mi SSE 12.7 mph 18.4 mph N/A   Unknown
8:15 PM 59.0 °F 46.4 °F 63% 29.89 in 10.0 mi SSE 12.7 mph 18.4 mph N/A   Unknown
8:35 PM 59.0 °F 48.2 °F 67% 29.90 in 10.0 mi SSE 11.5 mph - N/A   Unknown
8:55 PM 59.0 °F 46.4 °F 63% 29.91 in 10.0 mi SSE 9.2 mph 16.1 mph N/A   Unknown
9:15 PM 59.0 °F 48.2 °F 67% 29.90 in 10.0 mi SSE 12.7 mph 18.4 mph N/A   Unknown
9:35 PM 59.0 °F 50.0 °F 72% 29.92 in 10.0 mi SSE 11.5 mph - N/A   Unknown
9:55 PM 59.0 °F 50.0 °F 72% 29.92 in 10.0 mi SSE 11.5 mph - N/A   Unknown
10:15 PM 59.0 °F 51.8 °F 77% 29.93 in 10.0 mi South 9.2 mph 16.1 mph N/A   Unknown
10:35 PM 59.0 °F 50.0 °F 72% 29.93 in 10.0 mi SSE 15.0 mph 18.4 mph N/A   Unknown
10:55 PM 59.0 °F 50.0 °F 72% 29.93 in 10.0 mi SSE 10.4 mph - N/A   Unknown
11:15 PM 59.0 °F 50.0 °F 72% 29.93 in 10.0 mi SSE 9.2 mph - N/A   Unknown
11:35 PM 59.0 °F 50.0 °F 72% 29.94 in 10.0 mi SSE 10.4 mph - N/A   Unknown
11:55 PM 59.0 °F 50.0 °F 72% 29.93 in 10.0 mi SSE 9.2 mph - N/A   Unknown